Starlink 11421

operational
NORAD ID: 61945 Int'l Des: 2024-209 Owner: SPXS Country: US Constellation: starlink
LEOCIRCULAR

About Starlink 11421

Description loading...

Live Position

Loading 3D Globe...

Upcoming Passes

Altitude History

Altitude vs Time

uPlot chart will show altitude changes over time

Two-Line Element Set

1 61945U 24209G 25350.20691457 .00300936 00000-0 23845-2 0 9996
2 61945 53.1579 62.9734 0001212 128.7914 231.3212 15.69864609 63564
Epoch: Dec 16, 2025 • Age: 22 hours

Current Status

Altitude 366.4 km
Velocity 7.69 km/s
Sub-Earth Point -29.16°S, 127.83°E
Launch Date Nov 14, 2024
Age 1 years
Type internet

Technical Details

Classification Payload
Mass 960.00 kg
Dry Mass 910.00 kg
Total Mass 960.00 kg
Length 0.30 m
Diameter 4.10 m
Span 29.00 m
Shape Box + pan
Manufacturer SPXS
Bus Type Starlink V2MD
Phase Status In Orbit
Owner/State SPXS/US

Large Constellations

Loading constellations...